Regional Weather Roundup
Issued by NWS Jackson, KY

Home | Current Version | Previous Version | Graphics & Text | Print | Product List | Glossary On
Versions: 1 2 3 4 5 6 7 8 9 10 11 12 13 14 15 16 17 18 19 20 21 22 23 24 25 26 27 28 29 30 31 32 33 34 35 36 37 38 39 40 41 42 43 44 45 46 47 48 49 50
000
ASUS43 KJKL 241110
RWRJKL

EAST KENTUCKY HOURLY WEATHER ROUNDUP
NATIONAL WEATHER SERVICE JACKSON KY
600 AM EST FRI FEB 24 2017

NOTE: "FAIR" INDICATES FEW OR NO CLOUDS BELOW 12,000 FEET WITH
NO SIGNIFICANT WEATHER AND/OR OBSTRUCTIONS TO VISIBILITY.

* THESE REPORTS ARE NOT UNDER NWS QUALITY CONTROL AND MAY NOT
  REPORT WEATHER SUCH AS PRECIPITATION AND FOG.

KYZ079-080-083-085-087-088-110-112-115-119-120-241200
...EASTERN KENTUCKY...

CITY           SKY/WX    TMP DP  RH WIND       PRES   REMARKS
JACKSON        CLEAR     56  49  77 S3        29.82R
LONDON         CLEAR     57  47  69 S5        29.81S
SOMERSET*      CLEAR     59  46  63 S3        29.81R
MONTICELLO*    CLEAR     62  51  67 S9G16     29.81R
WILLIAMSBURG*  SUNNY     55  50  82 SE6       29.82R
MIDDLESBORO*   CLEAR     45  45 100 CALM      29.86R
HARLAN APT*    CLOUDY    55  46  71 CALM      29.86R
PIKE CO APT*     N/A     59  50  71 S6        29.84R
BIG SANDY APT* MOSUNNY   60  50  70 S6        29.83R
MOREHEAD APT*  PTSUNNY   57  50  77 SE6       29.81S
ASHLAND*       PTCLDY    48  46  93 SE3       29.79R VSB 3/4
$$

KYZ035-036-041-042-044-050-067-078-099-241200
...CENTRAL KENTUCKY...

CITY           SKY/WX    TMP DP  RH WIND       PRES   REMARKS
MT STERLING*   CLEAR     54  50  87 S8        29.80S
FLEMING/MASON* CLEAR     57  51  80 S10       29.77F
DANVILLE*      CLEAR     55  50  82 S7        29.77F
LEXINGTON      CLEAR     59  51  75 S12       29.76S
FRANKFORT      CLEAR     59  50  72 S7        29.73R
LOUISVILLE     PTCLDY    60  53  77 S9        29.70S
LEBANON*         N/A     61  54  77 S12       29.75R
GLASGOW*       CLEAR     58  53  81 S5        29.74S
BOWLING GREEN  MOCLDY    63  55  75 S13       29.72S
$$

KYZ091>093-OHZ055-061-077-WVZ005-015-034-035-042-241200
...SOUTHERN OHIO/WEST VIRGINIA...

CITY           SKY/WX    TMP DP  RH WIND       PRES   REMARKS
COVINGTON      PTCLDY    59  53  80 S14       29.70R
COLUMBUS       PTCLDY    62  54  74 S8        29.73F
DAYTON         PTCLDY    60  52  74 S16       29.69R
WILMINGTON     CLEAR     58  52  80 S13       29.72S
HUNTINGTON     PTCLDY    54  50  86 S3        29.80R
CHARLESTON     PTCLDY    49  46  90 CALM      29.83R
PINEVILLE*     CLEAR     42  40  91 MISG      29.93R FOG
BECKLEY        CLEAR     54  46  74 SE7       29.89R
BLUEFIELD      CLEAR     54  44  69 CALM      29.91R
LOGAN CO APT*    N/A     57  50  77 CALM      29.85R
$$

VAZ002-007-008-TNZ017-027-036-066-071-241200
...SOUTHWEST VIRGINIA/EAST TENNESSEE...

CITY           SKY/WX    TMP DP  RH WIND       PRES   REMARKS
WISE*          CLOUDY    57  45  62 S5        29.90R
JONESVILLE*      N/A     48  48 100 CALM      29.89R
ABINGDON*      CLEAR     51  47  86 CALM      29.90R
BRISTOL        PTCLDY    45  44  97 CALM      29.88R
MORRISTOWN*    SUNNY     52  48  87 CALM      29.85R
SEVIERVILLE*   SUNNY     45  45 100 CALM      29.86R
KNOXVILLE      PTCLDY    51  49  92 NE3       29.85R
LAFOLLETTE*    PTSUNNY   59  50  72 CALM      29.86S
OAK RIDGE      PTCLDY    51  49  92 CALM      29.86R
CROSSVILLE     CLEAR     59  49  69 S12G20    29.85S
NASHVILLE      PTCLDY    63  55  75 S9        29.75R
$$

...KEY TO REMARKS...
VSB - VISIBILITY IN MILES
WCI - WIND CHILL INDEX
HX  - HEAT INDEX

$$



USA.gov is the U.S. government's official web portal to all federal, state and local government web resources and services.